Regional Weather Roundup
Issued by NWS Newport/Morehead, NC

Current Version | Previous Version | Text Only | Print | Product List | Glossary Off
Versions: 1 2 3 4 5 6 7 8 9 10 11 12 13 14 15 16 17 18 19 20 21 22 23 24 25 26 27 28 29 30 31 32 33 34 35 36 37 38 39 40 41 42 43 44 45 46 47 48 49 50
654 ASUS42 KMHX 181725 RWRMHX WEATHER ROUNDUP FOR EASTERN NORTH CAROLINA NATIONAL WEATHER SERVICE NEWPORT/MOREHEAD CITY NC 1200 PM EST THU JAN 18 2018 NOTE: "FAIR" INDICATES FEW OR NO CLOUDS BELOW 12,000 FEET WITH NO SIGNIFICANT WEATHER AND/OR OBSTRUCTIONS TO VISIBILITY NCZ015>017-031-032-045>047-102-103-181800- NORTH COAST CITY SKY/WX TMP DP RH WIND PRES REMARKS EDENTON FAIR 32 15 50 NW10G17 30.22F ELIZABETH CITY FAIR 28 16 60 W14 30.20F WCI 17 KITTY HAWK FAIR 29 17 60 W10 30.15F WCI 20 MANTEO FAIR 28 16 63 NW15G21 30.18S WCI 16 $$ NCZ045>047-081-094-103-104-181800- CENTRAL COAST CITY SKY/WX TMP DP RH WIND PRES REMARKS FRISCO FAIR 31 20 63 NW12G24 30.19S $$ NCZ095-097-098-100-101-181800- SOUTHERN COAST CITY SKY/WX TMP DP RH WIND PRES REMARKS BEAUFORT MIX PCPN 32 15 49 NW14 30.24S CEDAR ISLAND NOT AVBL JACKSONVILLE FAIR 32 18 56 W15 30.27F PINEY ISLAND NOT AVBL WILMINGTON FAIR 33 15 47 W14 30.31F $$ NCZ011>013-027>030-043-044-078>080-089-090>093-098-181800- COASTAL PLAIN CITY SKY/WX TMP DP RH WIND PRES REMARKS AHOSKIE FAIR 30 15 53 W3 30.22F CLINTON FAIR 30 16 56 W10G17 30.32F ELIZABETHTOWN NOT AVBL GOLDSBORO FAIR 34 14 44 W10 30.26F GREENVILLE FAIR 32 14 47 NW7 30.26F HAVELOCK SUNNY 34 16 47 NW10 30.26S KENANSVILLE FAIR 32 16 51 W9 30.29F KINSTON SUNNY 32 12 43 W7 30.27F NEW BERN FAIR 31 15 52 NW12 30.27F RICHLANDS FAIR 32 15 49 W10G17 30.29F ROCKY MOUNT FAIR 28 17 63 W7 30.26F WASHINGTON FAIR 32 13 45 W5 30.24F WHITEVILLE FAIR 31 13 47 W8 30.33F $$ AMZ130-135-150-152-154-156-158-170-250-252-270-ANZ085-086-088-633-658-670-181800- MARINE OBSERVATIONS STATION/POSITION TIME TEMP WIND PRES WAVE SWELL AIR SEA DIR/SP/G HT/PER HT/PER (UTC) (F) (DEG/KT/KT) (MB) (FT/S) (FT/S) CHESAPEAKE LIGHT NOT AVBL 64 E VA BEACH 1650 35 55 320/ 25/ 31 1018.9 10/ 8 DUCK 1700 29 37 300/ 15/ 19 1021.0 2 E DUCK 1630 40 N/A 7/ 8 2/11 OREGON INLET 1700 28 37 300/ 16/ 21 1021.5 13E OREGON INLT 1618 42 N/A 9/ 7 5/ 8 HATTERAS CG 1700 29 40 310/ 19/ 26 1021.8 DIAMOND BUOY 1710 31 320/ 21/ 27 1021.6 CAPE LOOKOUT 1700 300/ 12/ 15 1024.0 BEAUFORT LAB 1700 32 44 320/ 8/ 16 1023.8 30 SE NEW RVR IN 1708 33 59 330/ 16/ 21 1024.8 30 SE NEW RVR IN 1630 59 N/A 5/ 5 2/11 27 SE WRIGHTSVLE 1708 34 60 300/ 19/ 27 1025.6 5 SE WRIGHTSVLE 1708 32 46 310/ 12/ 19 1025.8 225 S CAPE HAT 1650 52 70 320/ 23/ 33 1020.1 15/ 9 11/ 9 41 SE CHARLESTON 1710 36 67 330/ 17/ 21 1027.5 $$

USA.gov is the U.S. government's official web portal to all federal, state and local government web resources and services.